TimeEST,TemperatureF,Dew PointF,Humidity,Sea Level PressureIn,VisibilityMPH,Wind Direction,Wind SpeedMPH,Gust SpeedMPH,PrecipitationIn,Events,Conditions,WindDirDegrees,DateUTC
12:51 AM,51.1,46.9,86,30.33,10.0,North,15.0,-,N/A,,Overcast,360,2012-11-19 05:51:00
1:51 AM,51.1,46.0,83,30.32,10.0,North,15.0,24.2,N/A,,Overcast,360,2012-11-19 06:51:00
2:51 AM,50.0,46.0,86,30.31,10.0,North,17.3,24.2,N/A,,Overcast,360,2012-11-19 07:51:00
3:51 AM,50.0,46.0,86,30.29,10.0,North,18.4,28.8,N/A,,Overcast,360,2012-11-19 08:51:00
4:51 AM,50.0,46.0,86,30.28,10.0,North,18.4,28.8,N/A,,Overcast,10,2012-11-19 09:51:00
5:16 AM,50.0,46.4,87,30.28,10.0,North,18.4,26.5,N/A,,Overcast,10,2012-11-19 10:16:00
5:51 AM,50.0,46.0,86,30.29,10.0,North,17.3,28.8,N/A,,Overcast,360,2012-11-19 10:51:00
6:51 AM,50.0,46.0,86,30.29,10.0,North,18.4,27.6,N/A,,Overcast,360,2012-11-19 11:51:00
7:51 AM,50.0,46.0,86,30.30,10.0,North,17.3,26.5,N/A,,Overcast,360,2012-11-19 12:51:00
8:15 AM,50.0,46.4,87,30.29,10.0,North,18.4,28.8,N/A,,Overcast,360,2012-11-19 13:15:00
8:51 AM,50.0,46.0,86,30.30,10.0,North,17.3,25.3,N/A,,Overcast,360,2012-11-19 13:51:00
9:51 AM,51.1,46.9,86,30.28,10.0,North,19.6,28.8,N/A,,Overcast,360,2012-11-19 14:51:00
10:30 AM,51.8,46.4,82,30.27,10.0,North,19.6,28.8,N/A,,Overcast,360,2012-11-19 15:30:00
10:51 AM,51.1,46.9,86,30.26,10.0,North,20.7,24.2,N/A,,Overcast,10,2012-11-19 15:51:00
11:51 AM,51.1,46.9,86,30.24,10.0,North,17.3,26.5,N/A,,Overcast,10,2012-11-19 16:51:00
12:07 PM,51.8,46.4,82,30.23,10.0,North,19.6,27.6,N/A,,Overcast,360,2012-11-19 17:07:00
12:51 PM,50.0,46.9,89,30.22,8.0,North,19.6,26.5,N/A,,Overcast,360,2012-11-19 17:51:00
12:58 PM,50.0,46.4,87,30.22,9.0,North,19.6,29.9,N/A,,Overcast,360,2012-11-19 17:58:00
1:35 PM,51.8,46.4,82,30.21,9.0,North,17.3,27.6,N/A,,Overcast,350,2012-11-19 18:35:00
1:51 PM,51.1,46.9,86,30.21,9.0,North,18.4,31.1,N/A,,Overcast,350,2012-11-19 18:51:00
2:30 PM,50.0,46.4,87,30.21,3.0,North,19.6,28.8,N/A,,Overcast,360,2012-11-19 19:30:00
2:51 PM,50.0,46.0,86,30.21,3.0,North,21.9,29.9,N/A,,Overcast,360,2012-11-19 19:51:00
3:51 PM,50.0,46.0,86,30.20,8.0,North,20.7,29.9,N/A,,Overcast,360,2012-11-19 20:51:00
3:53 PM,50.0,46.4,87,30.21,5.0,North,19.6,27.6,N/A,,Overcast,360,2012-11-19 20:53:00
4:47 PM,50.0,46.4,87,30.20,5.0,North,17.3,26.5,N/A,,Overcast,10,2012-11-19 21:47:00
4:51 PM,50.0,46.0,86,30.20,5.0,North,17.3,24.2,N/A,,Overcast,10,2012-11-19 21:51:00
5:51 PM,50.0,46.0,86,30.20,10.0,North,17.3,26.5,N/A,,Overcast,360,2012-11-19 22:51:00
6:51 PM,50.0,46.0,86,30.20,10.0,North,13.8,23.0,N/A,,Overcast,360,2012-11-19 23:51:00
7:51 PM,50.0,46.0,86,30.20,10.0,North,19.6,28.8,N/A,,Overcast,360,2012-11-20 00:51:00
8:51 PM,50.0,45.0,83,30.19,10.0,North,16.1,21.9,N/A,,Overcast,10,2012-11-20 01:51:00
9:51 PM,50.0,45.0,83,30.18,10.0,North,15.0,-,N/A,,Overcast,10,2012-11-20 02:51:00
10:51 PM,50.0,46.0,86,30.16,9.0,NNE,16.1,23.0,N/A,,Overcast,20,2012-11-20 03:51:00
11:51 PM,50.0,46.0,86,30.15,10.0,NNE,15.0,21.9,N/A,,Overcast,20,2012-11-20 04:51:00